Tracking 30995 objects as of 5-Jul-2025
HD Live streaming from Space Station
objects crossing your sky now

ONEWEB-0547

Track ONEWEB-0547 now!
10-day predictions
ONEWEB-0547 is classified as:


NORAD ID: 56049
Int'l Code: 2023-043D
Perigee: 1,183.2 km
Apogee: 1,186.6 km
Inclination: 87.9 °
Period: 108.9 minutes
Semi major axis: 7555 km
RCS: Unknown
Launch date: March 26, 2023
Source: United Kingdom (UK)
Launch site: SRIHARIKOTA (SRI)
Your satellite tracking list
Your tracking list is empty




NASA's NSSDC Master Catalog

Two Line Element Set (TLE):
1 56049U 23043D   25186.33284566  .00001887  00000-0  45378-2 0  9998
2 56049  87.9263 313.1616 0002256  93.4720 266.6672 13.21818359112406
Source of the keplerian elements: AFSPC